This is the latest recevied weather packets stored in our database for station/object KC3QLX. If no packets are shown the sender has not sent any weather packets the latest 10 day(s).
| Time | Temp. | Humidity | Pressure | Rain* | Wind** | Luminosity | Snow |
|---|---|---|---|---|---|---|---|
| 1778018682 | 26.67° C | 39% | 1007 hPa | 0 mm | - | 187 W/m² | - |
| 1778018380 | 26.67° C | 36% | 1006.7 hPa | 0 mm | - | 87 W/m² | - |
| 1778018078 | 27.22° C | 36% | 1006.9 hPa | 0 mm | - | 213 W/m² | - |
| 1778017775 | 26.67° C | 37% | 1006.8 hPa | 0 mm | - | 220 W/m² | - |
| 1778017473 | 26.67° C | 37% | 1006.6 hPa | 0 mm | - | 206 W/m² | - |
| 1778017170 | 27.22° C | 35% | 1006.7 hPa | 0 mm | - | 260 W/m² | - |
| 1778016868 | 26.67° C | 36% | 1006.9 hPa | 0 mm | - | 295 W/m² | - |
| 1778016564 | 26.67° C | 38% | 1006.8 hPa | 0 mm | - | 156 W/m² | - |
| 1778016261 | 27.22° C | 37% | 1006.7 hPa | 0 mm | - | 127 W/m² | - |
| 1778015957 | 27.22° C | 37% | 1006.8 hPa | 0 mm | - | 262 W/m² | - |
| 1778015655 | 27.22° C | 37% | 1006.9 hPa | 0 mm | - | 301 W/m² | - |
| 1778015351 | 27.22° C | 36% | 1006.8 hPa | 0 mm | - | 330 W/m² | - |
| 1778015048 | 26.67° C | 38% | 1006.8 hPa | 0 mm | - | 393 W/m² | - |
| 1778014745 | 27.22° C | 37% | 1006.7 hPa | 0 mm | - | 209 W/m² | - |
| 1778014443 | 27.22° C | 38% | 1006.9 hPa | 0 mm | - | 413 W/m² | - |
| 1778014139 | 27.22° C | 37% | 1006.8 hPa | 0 mm | - | 188 W/m² | - |
| 1778013837 | 27.78° C | 36% | 1006.7 hPa | 0 mm | - | 304 W/m² | - |
| 1778013534 | 27.78° C | 36% | 1006.7 hPa | 0 mm | - | 342 W/m² | - |
| 1778013231 | 27.78° C | 36% | 1006.8 hPa | 0 mm | - | 422 W/m² | - |
| 1778012927 | 27.78° C | 37% | 1006.6 hPa | 0 mm | - | 405 W/m² | - |
| 1778012624 | 28.33° C | 35% | 1006.9 hPa | 0 mm | - | 459 W/m² | - |
| 1778012320 | 28.33° C | 36% | 1006.9 hPa | 0 mm | - | 431 W/m² | - |
| 1778012018 | 27.78° C | 35% | 1006.8 hPa | 0 mm | - | 478 W/m² | - |
| 1778011716 | 27.78° C | 37% | 1006.5 hPa | 0 mm | - | 516 W/m² | - |
| 1778011413 | 27.78° C | 36% | 1007 hPa | 0 mm | - | 157 W/m² | - |
* Rain latest hour (hover to see other rain measurements)
** Current wind speed in m/s (hover to see current wind gust speed)